Terminal Aerodrome Forecast
Issued by NWS Charleston, WV

Current Version | Previous Version | Graphics & Text | Print | Product List | Glossary On
Versions: 1 2 3 4 5 6 7 8 9 10 11 12 13 14 15 16 17 18 19 20 21 22 23 24
000
FTUS41 KRLX 041844 AAA
TAFEKN
TAF AMD
KEKN 041844Z 0419/0518 28008G15KT P6SM SCT050
     FM042300 28004KT P6SM FEW050
     FM050500 00000KT 6SM BR SCT045
     FM050600 00000KT 3SM BR SCT040
     FM051200 00000KT 6SM BR SCT050
     FM051400 29006KT P6SM SCT050=

USA.gov is the U.S. government's official web portal to all federal, state and local government web resources and services.